Location: Asarope
(8.2500°N, 4.4833°E)
Time: 00:08:14
(UTC+00:00)

ALOS - Visible Passes

Search period start: 14 June 2021 00:00
Search period end: 24 June 2021 00:00
Orbit: 682 x 685 km, 97.9° (Epoch: 13 June)

Date Brightness Start Highest point End Pass type
(mag) Time Alt. Az. Time Alt. Az. Time Alt. Az.
14 Jun 5.2 02:26:14 10° E 02:26:25 10° E 02:26:25 10° E visible
14 Jun 2.8 03:59:56 10° N 04:04:13 37° WNW 04:04:55 35° W visible
15 Jun 3.7 02:59:50 10° NE 03:03:51 33° E 03:03:51 33° E visible
15 Jun 4.2 04:39:16 10° NW 04:41:03 12° WNW 04:42:21 11° W visible
16 Jun 2.1 03:36:19 10° N 03:40:58 77° WNW 03:41:17 73° WSW visible
17 Jun 4.8 02:37:48 10° ENE 02:40:13 16° E 02:40:13 16° E visible
17 Jun 3.4 04:14:07 10° NNW 04:17:52 24° WNW 04:18:43 23° W visible
18 Jun 2.9 03:13:11 10° NNE 03:17:39 51° E 03:17:39 51° E visible
19 Jun 2.4 03:50:10 10° N 03:54:39 49° WNW 03:55:05 47° W visible
20 Jun 4.2 02:50:36 10° NE 02:54:01 25° E 02:54:01 25° E visible
20 Jun 3.9 04:28:41 10° NW 04:31:31 16° WNW 04:32:30 15° W visible
21 Jun 2.2 03:26:44 10° NNE 03:31:23 80° E 03:31:26 80° ESE visible
22 Jun 5.1 02:29:12 10° ENE 02:30:22 12° E 02:30:22 12° E visible
22 Jun 3.0 04:04:12 10° NNW 04:08:19 32° WNW 04:08:51 31° W visible
23 Jun 3.5 03:03:48 10° NNE 03:07:48 38° E 03:07:48 38° E visible
23 Jun 4.3 04:44:39 10° WNW 04:45:09 10° WNW 04:45:40 10° W visible
